Weather History for Oelwein, IA

Change the Weather History Date:

Tuesday, December 10, 2013

  Actual Average Record
Temperature  
Mean Temperature 5 °F -  
Max Temperature 15 °F 31 °F 56 °F (1979)
Min Temperature -5 °F 13 °F -19 °F (1958)
Degree Days  
Heating Degree Days 60    
Moisture  
Dew Point 4 °F    
Average Humidity 73    
Maximum Humidity 93    
Minimum Humidity 62    
Precipitation  
Precipitation 0.00 in - - ()
Sea Level Pressure  
Sea Level Pressure 30.07 in    
Wind  
Wind Speed 16 mph (WSW)    
Max Wind Speed 28 mph    
Max Gust Speed 34 mph    
Visibility 8 miles    
Events Snow    
Averages and records for this station are not official NWS values.
T = Trace of Precipitation, MM = Missing Value Source: NWS Daily Summary

Daily Weather History Graph

Daily Weather History Graph

Search for Another Location

Airport:

Trip Planner

Search our weather history database for the weather conditions in past years. The results will help you decide how hot, cold, wet, or windy it might be!

Date:

Astronomy

Dec. 10, 2013 Rise Set
Actual Time 7:27 AM CST 4:34 PM CST
Civil Twilight 6:55 AM CST 5:06 PM CST
Nautical Twilight 6:19 AM CST 5:41 PM CST
Astronomical Twilight 5:45 AM CST 6:16 PM CST
Moon 12:42 PM CST (12/10) 12:38 AM CST (12/10)
Length of Visible Light 10h 10m
Length of Day
9h 06m
Waxing Gibbous, 62% of the Moon is Illuminated
Dec 10
Waxing Gibbous
Dec 17
Full
Dec 25
Last Quarter
Jan 1
New
Jan 7
First Quarter

Hourly Weather History & Observations

Time (CST) Temp. Windchill Dew Point Humidity Pressure Visibility Wind Dir Wind Speed Gust Speed Precip Events Conditions
12:15 AM -5.8 °F -26.0 °F -11.2 °F 77% 30.05 in 10.0 mi South 13.8 mph - N/A   Clear
12:35 AM -5.8 °F -26.8 °F -11.2 °F 77% 30.03 in 10.0 mi South 15.0 mph - N/A   Clear
12:55 AM -4.0 °F -24.5 °F -11.2 °F 71% 30.01 in 10.0 mi South 15.0 mph - N/A   Scattered Clouds
1:15 AM -2.2 °F -22.9 °F -9.4 °F 71% 30.00 in 10.0 mi South 16.1 mph - N/A   Overcast
1:35 AM 1.4 °F -18.8 °F -7.6 °F 66% 29.98 in 10.0 mi South 17.3 mph 23.0 mph N/A   Overcast
1:55 AM 1.4 °F -20.5 °F -5.8 °F 72% 29.97 in 10.0 mi SSW 20.7 mph 28.8 mph N/A   Overcast
2:15 AM 1.4 °F -19.4 °F -5.8 °F 72% 29.96 in 10.0 mi SSW 18.4 mph - N/A   Overcast
2:35 AM 3.2 °F -16.5 °F -5.8 °F 66% 29.95 in 10.0 mi SSW 17.3 mph 24.2 mph N/A   Overcast
2:55 AM 3.2 °F -16.5 °F -4.0 °F 72% 29.94 in 10.0 mi SSW 17.3 mph - N/A   Overcast
3:15 AM 5.0 °F -13.0 °F -2.2 °F 72% 29.93 in 3.0 mi SSW 15.0 mph - N/A Snow Light Snow
3:35 AM 6.8 °F -11.8 °F -0.4 °F 72% 29.92 in 3.0 mi SSW 17.3 mph 23.0 mph N/A Snow Light Snow
4:35 AM 8.6 °F -8.9 °F 3.2 °F 79% 29.89 in 6.0 mi SW 16.1 mph 23.0 mph N/A Snow Light Snow
4:55 AM 10.4 °F -8.2 °F 5.0 °F 79% 29.88 in 10.0 mi SW 19.6 mph - N/A   Overcast
5:15 AM 12.2 °F -6.3 °F 6.8 °F 79% 29.88 in 10.0 mi WSW 20.7 mph - N/A   Overcast
5:35 AM 12.2 °F -4.3 °F 6.8 °F 79% 29.88 in 10.0 mi WSW 16.1 mph 25.3 mph N/A   Overcast
5:55 AM 14.0 °F -3.4 °F 6.8 °F 73% 29.88 in 10.0 mi WSW 19.6 mph 26.5 mph N/A   Overcast
6:15 AM 14.0 °F -3.4 °F 8.6 °F 79% 29.89 in 10.0 mi WSW 19.6 mph - N/A   Overcast
6:35 AM 14.0 °F -2.0 °F 6.8 °F 73% 29.89 in 10.0 mi WSW 16.1 mph 24.2 mph N/A   Overcast
6:55 AM 12.2 °F -3.1 °F 6.8 °F 79% 29.90 in 10.0 mi WSW 13.8 mph - N/A   Overcast
7:15 AM 15.8 °F -2.3 °F 10.4 °F 79% 29.91 in 2.0 mi West 23.0 mph 29.9 mph N/A Snow Light Snow
7:35 AM 14.0 °F -5.8 °F 8.6 °F 79% 29.93 in 1.2 mi WNW 26.5 mph 32.2 mph N/A Snow Light Snow
7:55 AM 14.0 °F -5.1 °F 6.8 °F 73% 29.96 in 3.0 mi WNW 24.2 mph 32.2 mph N/A Snow Light Snow
8:15 AM 12.2 °F -5.8 °F 5.0 °F 73% 29.97 in 9.0 mi WNW 19.6 mph 29.9 mph N/A   Mostly Cloudy
8:35 AM 12.2 °F -8.2 °F 6.8 °F 79% 29.99 in 1.5 mi WNW 26.5 mph - N/A   Haze
8:55 AM 12.2 °F -7.5 °F 3.2 °F 67% 30.01 in 9.0 mi WNW 24.2 mph 29.9 mph N/A   Scattered Clouds
9:15 AM 10.4 °F -11.0 °F 3.2 °F 73% 30.03 in 4.0 mi WNW 27.6 mph 33.4 mph N/A   Light Freezing Rain
9:35 AM 10.4 °F -9.9 °F 3.2 °F 73% 30.05 in 7.0 mi West 24.2 mph 29.9 mph N/A   Overcast
9:55 AM 10.4 °F -9.1 °F 1.4 °F 67% 30.06 in 6.0 mi WNW 21.9 mph 34.5 mph N/A   Haze
10:15 AM 10.4 °F -9.1 °F 1.4 °F 67% 30.07 in 10.0 mi WNW 21.9 mph - N/A   Mostly Cloudy
10:35 AM 10.4 °F -9.1 °F -0.4 °F 62% 30.08 in 10.0 mi West 21.9 mph 28.8 mph N/A   Mostly Cloudy
10:55 AM 10.4 °F -9.1 °F -0.4 °F 62% 30.08 in 10.0 mi WNW 21.9 mph 27.6 mph N/A   Mostly Cloudy
11:15 AM 10.4 °F -9.9 °F -0.4 °F 62% 30.11 in 10.0 mi WNW 24.2 mph - N/A   Mostly Cloudy
11:35 AM 10.4 °F -8.6 °F 1.4 °F 67% 30.10 in 10.0 mi WNW 20.7 mph 27.6 mph N/A   Mostly Cloudy
11:55 AM 10.4 °F -8.2 °F 1.4 °F 67% 30.09 in 10.0 mi WNW 19.6 mph 25.3 mph N/A   Mostly Cloudy
12:15 PM 10.4 °F -7.7 °F 1.4 °F 67% 30.10 in 10.0 mi West 18.4 mph 26.5 mph N/A   Partly Cloudy
12:35 PM 10.4 °F -8.2 °F 1.4 °F 67% 30.11 in 10.0 mi WNW 19.6 mph - N/A   Partly Cloudy
12:55 PM 12.2 °F -5.8 °F 1.4 °F 62% 30.11 in 10.0 mi WNW 19.6 mph 25.3 mph N/A   Partly Cloudy
1:15 PM 12.2 °F -7.1 °F 1.4 °F 62% 30.12 in 10.0 mi West 23.0 mph - N/A   Clear
1:35 PM 12.2 °F -3.7 °F 3.2 °F 67% 30.12 in 10.0 mi West 15.0 mph - N/A   Clear
1:55 PM 12.2 °F -2.5 °F 1.4 °F 62% 30.12 in 10.0 mi West 12.7 mph 20.7 mph N/A   Clear
2:15 PM 12.2 °F -4.3 °F 1.4 °F 62% 30.12 in 10.0 mi West 16.1 mph 21.9 mph N/A   Clear
2:35 PM 12.2 °F -3.7 °F 1.4 °F 62% 30.12 in 10.0 mi WNW 15.0 mph 20.7 mph N/A   Clear
2:55 PM 12.2 °F -3.7 °F 1.4 °F 62% 30.13 in 10.0 mi West 15.0 mph - N/A   Clear
3:15 PM 12.2 °F -1.0 °F 3.2 °F 67% 30.13 in 10.0 mi West 10.4 mph 17.3 mph N/A   Clear
3:35 PM 12.2 °F -1.8 °F 1.4 °F 62% 30.13 in 10.0 mi West 11.5 mph - N/A   Clear
3:55 PM 12.2 °F -0.2 °F 3.2 °F 67% 30.14 in 10.0 mi West 9.2 mph - N/A   Clear
4:15 PM 12.2 °F 0.7 °F 3.2 °F 67% 30.14 in 10.0 mi West 8.1 mph - N/A   Clear
4:35 PM 12.2 °F 2.9 °F 3.2 °F 67% 30.14 in 10.0 mi West 5.8 mph - N/A   Clear
4:55 PM 12.2 °F 1.7 °F 3.2 °F 67% 30.15 in 10.0 mi WSW 6.9 mph - N/A   Mostly Cloudy
5:15 PM 12.2 °F -0.2 °F 5.0 °F 73% 30.17 in 10.0 mi WSW 9.2 mph - N/A   Overcast
5:35 PM 12.2 °F -1.0 °F 5.0 °F 73% 30.16 in 10.0 mi West 10.4 mph - N/A   Overcast
5:55 PM 14.0 °F 2.9 °F 5.0 °F 67% 30.17 in 10.0 mi WSW 8.1 mph - N/A   Overcast
6:15 PM 14.0 °F 3.9 °F 5.0 °F 67% 30.16 in 10.0 mi WSW 6.9 mph - N/A   Overcast
6:35 PM 14.0 °F 5.1 °F 6.8 °F 73% 30.17 in 10.0 mi WSW 5.8 mph - N/A   Overcast
6:55 PM 14.0 °F 2.9 °F 6.8 °F 73% 30.18 in 9.0 mi WSW 8.1 mph - N/A Snow Light Snow
7:15 PM 14.0 °F -0.2 °F 6.8 °F 73% 30.18 in 6.0 mi West 12.7 mph - N/A Snow Light Snow
7:35 PM 14.0 °F 0.5 °F 8.6 °F 79% 30.19 in 5.0 mi West 11.5 mph - N/A Snow Light Snow
7:55 PM 14.0 °F 1.2 °F 8.6 °F 79% 30.19 in 4.0 mi WSW 10.4 mph - N/A Snow Light Snow
8:15 PM 14.0 °F 2.0 °F 10.4 °F 86% 30.20 in 3.0 mi WSW 9.2 mph - N/A Snow Light Snow
8:35 PM 14.0 °F 2.9 °F 10.4 °F 86% 30.19 in 4.0 mi WSW 8.1 mph - N/A Snow Light Snow
8:55 PM 14.0 °F 2.9 °F 10.4 °F 86% 30.20 in 3.0 mi WSW 8.1 mph - N/A Snow Light Snow
9:15 PM 14.0 °F 2.9 °F 10.4 °F 86% 30.21 in 3.0 mi WSW 8.1 mph - N/A Snow Light Snow
9:35 PM 14.0 °F 2.9 °F 10.4 °F 86% 30.21 in 2.0 mi SW 8.1 mph - N/A Snow Light Snow
9:55 PM 14.0 °F 2.9 °F 10.4 °F 86% 30.21 in 2.5 mi SW 8.1 mph - N/A Snow Light Snow
10:15 PM 14.0 °F 3.9 °F 10.4 °F 86% 30.21 in 3.0 mi SW 6.9 mph - N/A Snow Light Snow
10:35 PM 14.0 °F 5.1 °F 12.2 °F 93% 30.21 in 3.0 mi SSW 5.8 mph - N/A Snow Light Snow
10:55 PM 14.0 °F 6.5 °F 12.2 °F 93% 30.21 in 3.0 mi South 4.6 mph - N/A Snow Light Snow
11:15 PM 14.0 °F 3.9 °F 10.4 °F 86% 30.21 in 3.0 mi SSW 6.9 mph - N/A Snow Light Snow
11:35 PM 14.0 °F 3.9 °F 12.2 °F 93% 30.22 in 1.5 mi SSW 6.9 mph - N/A Snow Light Snow
11:55 PM 14.0 °F 6.5 °F 12.2 °F 93% 30.22 in 1.5 mi SSW 4.6 mph - N/A Snow Light Snow